This demonstration page uses our WeatherBlox Daily Observations layout. Learn more.

Left ArrowRight Arrow

39.12711, -84.51439

Hourly Observations for March 1, 2021

Temp ( °F °C ) Dew Point ( °F °C ) Humidity (%) Winds ( mph kmh ) Pressure ( in mb ) Visibility ( mi km ) Precip ( " mm )
12:02 am 00:02 Cloudy with Light Rain 52 11.1 41 5 66 66 NNW 14 22 29.84 1010 10 16.0934 0.001 0.001
12:35 am 00:35 Cloudy with Light Rain 51 10.6 38 3.3 61 61 NNW 7 11 29.87 1011 10 16.0934 0.001 0.001
12:45 am 00:45 Cloudy 50 10 37 2.8 61 61 N 8 13 29.85 1011 10 16.0934 0.001 0.001
12:53 am 00:53 Cloudy 50 10 37 2.8 61 61 N 7 11 29.85 1011 10 16.0934 0.001 0.001
1:06 am 01:06 Cloudy 50 10 37 2.8 61 61 VRB 3 6 29.86 1011 10 16.0934 0 0
1:53 am 01:53 Cloudy with Light Rain 48 8.9 39 3.9 71 71 NNW 9 15 29.9 1013 10 16.0934 0.001 0.001
2:45 am 02:45 Cloudy 45 7.2 39 3.9 80 80 NNW 9 15 29.94 1014 10 16.0934 0.001 0.001
2:53 am 02:53 Cloudy 45 7.2 39 3.9 80 80 NW 6 9 29.93 1013 10 16.0934 0.001 0.001
3:53 am 03:53 Mostly Cloudy 42 5.6 35 1.7 76 76 NNW 12 19 29.96 1015 10 16.0934 0 0
4:07 am 04:07 Partly Cloudy 42 5.6 34 1.1 73 73 NNW 10 17 29.98 1015 10 16.0934 0 0
4:28 am 04:28 Mostly Cloudy 41 5 33 0.6 73 73 NNW 12 19 29.98 1015 10 16.0934 0 0
4:53 am 04:53 Cloudy 41 5 33 0.6 73 73 NW 12 19 29.98 1015 10 16.0934 0 0
5:53 am 05:53 Cloudy 40 4.4 32 0 73 73 NW 9 15 30.02 1017 10 16.0934 0 0
6:25 am 06:25 Partly Cloudy 39 3.9 31 -0.6 73 73 NW 16 26 30.05 1018 10 16.0934 0 0
6:53 am 06:53 Partly Cloudy 39 3.9 31 -0.6 73 73 NW 9 15 30.04 1017 7 11.26538 0 0
7:53 am 07:53 Mostly Cloudy 39 3.9 31 -0.6 73 73 WNW 6 9 30.08 1019 8 12.87472 0 0
8:53 am 08:53 Mostly Cloudy 39 3.9 30 -1.1 70 70 NNW 7 11 30.13 1020 10 16.0934 0 0
9:53 am 09:53 Partly Cloudy 40 4.4 32 0 73 73 NW 7 11 30.14 1021 10 16.0934 0 0
10:53 am 10:53 Sunny 42 5.6 30 -1.1 62 62 NNW 9 15 30.13 1020 10 16.0934 0 0
11:53 am 11:53 Sunny 42 5.6 28 -2.2 58 58 WNW 8 13 30.15 1021 10 16.0934 0 0
12:53 pm 12:53 Sunny 46 7.8 26 -3.3 46 46 VRB 7 11 30.19 1022 10 16.0934 0 0
1:53 pm 13:53 Sunny 46 7.8 22 -5.6 38 38 W 12 19 30.18 1022 10 16.0934 0 0
2:53 pm 14:53 Sunny 47 8.3 21 -6.1 36 36 WNW 15 24 30.18 1022 10 16.0934 0 0
3:53 pm 15:53 Sunny 48 8.9 23 -5 37 37 NW 12 19 30.21 1023 10 16.0934 0 0
4:53 pm 16:53 Mostly Sunny 45 7.2 19 -7.2 35 35 NNW 15 24 30.22 1023 10 16.0934 0 0
5:53 pm 17:53 Sunny 44 6.7 19 -7.2 37 37 NNW 13 20 30.23 1024 10 16.0934 0 0
6:53 pm 18:53 Clear 41 5 21 -6.1 45 45 N 16 26 30.26 1025 10 16.0934 0 0
7:53 pm 19:53 Clear 38 3.3 22 -5.6 52 52 NNW 16 26 30.3 1026 10 16.0934 0 0
8:53 pm 20:53 Clear 36 2.2 22 -5.6 57 57 N 13 20 30.33 1027 10 16.0934 0 0
9:53 pm 21:53 Clear 34 1.1 21 -6.1 59 59 NNW 10 17 30.37 1028 10 16.0934 0 0
10:53 pm 22:53 Clear 33 0.6 21 -6.1 61 61 N 10 17 30.4 1029 10 16.0934 0 0
11:53 pm 23:53 Clear 31 -0.6 21 -6.1 67 67 NNE 7 11 30.39 1029 10 16.0934 0 0

Powered by AerisWeather